QPF
0.00 0.00 0.00 0.00 0.00 0.00 0.00 0.00 0.00 0.00 0.02 0.01 0.01 0.03 0.00 0.00 0.00 0.00 0.01 0.02 0.03 0.00 0.00 0.00 0.00 0.00 0.00 0.00 0.00 0.00 0.00 0.00
0.00 0.00 0.00 0.00 0.00 0.00 0.00 0.00 0.00 0.00 0.01 0.00 0.00 0.00 0.00 0.00 0.00 0.00 0.02 0.04 0.08 0.10 0.06 0.09 0.01 0.00 0.00 0.00 0.00 0.00 0.00 0.00
0.00 0.00 0.00 0.00 0.00 0.00 0.00 0.00 0.00 0.00 0.00 0.00 0.00 0.00 0.00 0.00 0.00 0.01 0.03 0.03 0.06 0.05 0.07 0.14 0.05 0.05 0.00 0.00 0.00 0.00 0.00 0.00
0.00 0.00 0.00 0.00 0.00 0.00 0.00 0.00 0.00 0.00 0.00 0.00 0.00 0.00 0.00 0.00 0.00 0.00 0.00 0.01 0.07 0.04 0.04 0.08 0.06 0.03 0.00 0.00 0.00 0.00 0.00 0.00
0.00 0.00 0.00 0.00 0.00 0.00 0.00 0.00 0.00 0.00 0.00 0.00 0.00 0.00 0.00 0.00 0.00 0.00 0.00 0.00 0.00 0.02 0.00 0.00 0.01 0.00 0.00 0.00 0.00 0.00 0.00 0.00
0.00 0.00 0.00 0.00 0.00 0.00 0.00 0.00 0.00 0.00 0.00 0.00 0.00 0.00 0.00 0.00 0.00 0.00 0.00 0.00 0.00 0.00 0.00 0.00 0.00 0.01 0.00 0.00 0.00 0.00 0.00 0.00
0.00 0.00 0.00 0.00 0.00 0.00 0.00 0.00 0.00 0.00 0.00 0.00 0.00 0.00 0.00 0.00 0.00 0.02 0.00 0.01 0.02 0.00 0.01 0.00 0.01 0.00 0.00 0.00 0.00 0.00 0.00 0.00
0.00 0.00 0.00 0.00 0.00 0.00 0.00 0.00 0.00 0.00 0.00 0.00 0.00 0.00 0.01 0.00 0.01 0.08 0.05 0.01 0.02 0.01 0.01 0.00 0.00 0.00 0.00 0.00 0.00 0.00 0.00 0.00
0.00 0.00 0.00 0.00 0.00 0.00 0.00 0.00 0.00 0.00 0.00 0.00 0.00 0.01 0.08 0.16 0.06 0.13 0.07 0.08 0.05 0.05 0.04 0.02 0.01 0.00 0.00 0.00 0.00 0.00 0.00 0.00
0.00 0.00 0.00 0.00 0.00 0.00 0.00 0.00 0.00 0.00 0.00 0.00 0.00 0.00 0.02 0.00 0.02 0.08 0.10 0.06 0.03 0.04 0.02 0.01 0.00 0.00 0.00 0.00 0.00 0.00 0.00 0.00
0.00 0.00 0.00 0.00 0.00 0.00 0.00 0.00 0.00 0.00 0.00 0.01 0.00 0.01 0.03 0.06 0.23 0.15 0.12 0.05 0.05 0.03 0.01 0.00 0.00 0.00 0.00 0.00 0.00 0.00 0.00 0.00
0.00 0.00 0.00 0.00 0.00 0.00 0.00 0.00 0.00 0.00 0.00 0.02 0.06 0.07 0.26 0.30 0.10 0.09 0.09 0.06 0.02 0.00 0.00 0.00 0.00 0.00 0.00 0.00 0.00 0.00 0.00 0.00
0.00 0.00 0.00 0.00 0.00 0.00 0.00 0.00 0.00 0.01 0.08 0.26 0.15 0.25 0.11 0.08 0.06 0.05 0.03 0.00 0.00 0.00 0.00 0.00 0.00 0.00 0.00 0.00 0.00 0.00 0.00 0.00
0.00 0.00 0.00 0.00 0.00 0.00 0.01 0.01 0.00 0.10 0.23 0.13 0.20 0.22 0.04 0.04 0.03 0.02 0.01 0.00 0.00 0.00 0.00 0.00 0.00 0.00 0.00 0.00 0.00 0.00 0.00 0.00
0.00 0.00 0.00 0.00 0.00 0.00 0.01 0.00 0.02 0.02 0.04 0.10 0.07 0.01 0.04 0.02 0.02 0.02 0.01 0.00 0.00 0.00 0.00 0.00 0.00 0.00 0.00 0.00 0.00 0.00 0.00 0.00
0.00 0.00 0.00 0.00 0.00 0.00 0.00 0.02 0.01 0.02 0.03 0.02 0.03 0.01 0.03 0.01 0.01 0.01 0.00 0.00 0.00 0.00 0.00 0.00 0.00 0.00 0.00 0.00 0.00 0.00 0.00 0.00
0.00 0.00 0.00 0.00 0.00 0.00 0.01 0.03 0.02 0.01 0.03 0.03 0.02 0.02 0.01 0.00 0.00 0.00 0.00 0.00 0.00 0.00 0.00 0.00 0.00 0.00 0.00 0.00 0.00 0.00 0.00 0.00
0.00 0.00 0.02 0.08 0.03 0.00 0.01 0.02 0.01 0.02 0.03 0.00 0.00 0.00 0.00 0.00 0.00 0.00 0.00 0.00 0.00 0.00 0.00 0.00 0.00 0.00 0.00 0.00 0.00 0.00 0.00 0.00
0.00 0.00 0.05 0.03 0.01 0.01 0.01 0.01 0.01 0.01 0.00 0.00 0.00 0.00 0.00 0.00 0.00 0.00 0.00 0.00 0.00 0.00 0.00 0.00 0.00 0.00 0.00 0.00 0.00 0.00 0.00 0.00
MSLP
1010.88 1012.36 1013.51 1014.44 1015.42 1016.40 1017.01 1017.59 1017.96 1018.52 1019.03 1019.27 1019.48 1019.57 1019.05 1019.00 1019.02 1019.16 1019.53 1020.01 1020.48 1020.78 1020.86 1021.32 1021.56 1021.88 1022.33 1022.65 1022.93 1022.81 1023.11 1023.12
1010.03 1011.26 1012.50 1013.49 1014.88 1015.88 1016.38 1016.87 1017.41 1017.86 1018.35 1018.60 1018.71 1018.61 1018.51 1018.68 1018.64 1018.82 1019.27 1019.83 1020.13 1020.56 1020.78 1020.93 1021.15 1021.57 1022.03 1022.56 1022.81 1022.83 1023.09 1023.02
1009.94 1010.69 1011.70 1012.94 1014.32 1015.16 1015.72 1016.21 1016.66 1017.09 1017.31 1017.44 1017.67 1017.74 1017.98 1018.11 1018.22 1018.38 1018.69 1019.20 1019.74 1019.94 1020.14 1020.36 1020.97 1021.70 1021.96 1022.22 1022.77 1022.84 1022.83 1022.92
1009.35 1010.29 1011.19 1012.31 1013.33 1014.08 1014.70 1015.34 1015.94 1016.16 1015.99 1016.19 1016.55 1016.92 1017.17 1017.51 1017.75 1018.02 1018.23 1018.74 1019.41 1019.39 1019.56 1020.02 1020.71 1021.30 1021.75 1021.96 1022.44 1022.72 1022.66 1022.54
1008.38 1009.53 1010.45 1011.13 1012.08 1012.96 1013.66 1014.40 1014.77 1015.00 1014.96 1015.05 1015.40 1015.75 1016.22 1016.58 1016.96 1017.33 1017.61 1018.06 1018.83 1019.37 1019.82 1019.82 1019.99 1020.39 1021.16 1021.24 1021.71 1022.42 1022.48 1022.20
1007.31 1008.32 1009.37 1010.30 1011.08 1011.90 1012.71 1013.26 1013.67 1013.84 1014.14 1014.25 1014.65 1015.01 1015.44 1015.74 1016.16 1016.53 1017.30 1017.96 1018.48 1018.97 1019.40 1019.62 1019.79 1020.12 1020.62 1020.93 1021.36 1022.16 1022.65 1022.05
1005.99 1007.44 1008.55 1009.23 1010.11 1010.92 1011.69 1012.12 1012.38 1012.65 1013.05 1013.49 1013.93 1014.37 1014.88 1015.39 1015.68 1016.19 1016.78 1017.44 1017.98 1018.52 1018.95 1019.32 1019.40 1019.67 1020.32 1021.06 1021.56 1022.13 1022.84 1023.44
1004.31 1005.71 1006.82 1007.74 1008.68 1009.59 1010.45 1011.13 1011.34 1011.61 1012.01 1012.51 1013.24 1013.67 1014.13 1014.79 1015.41 1015.83 1016.51 1017.03 1017.31 1017.69 1018.32 1018.77 1019.20 1019.64 1020.28 1020.89 1021.57 1022.55 1023.22 1023.66
1002.87 1003.91 1005.26 1006.44 1007.46 1008.35 1009.16 1009.80 1010.40 1010.82 1011.30 1011.88 1012.51 1013.08 1012.97 1013.93 1014.68 1015.30 1015.55 1016.05 1016.55 1016.93 1017.49 1018.25 1019.03 1019.54 1020.05 1020.78 1021.41 1022.16 1022.48 1023.45
1001.52 1002.52 1003.60 1004.83 1006.05 1007.18 1008.14 1008.86 1009.54 1009.94 1010.28 1011.06 1011.61 1012.07 1012.81 1013.01 1013.70 1014.33 1014.73 1015.44 1016.08 1016.80 1017.50 1018.32 1019.20 1019.95 1020.46 1020.92 1021.58 1022.13 1022.58 1023.48
1000.56 1001.26 1002.30 1003.47 1004.57 1005.76 1007.07 1007.98 1008.48 1008.86 1009.36 1009.95 1010.52 1011.33 1012.43 1012.52 1012.93 1013.22 1014.45 1015.45 1016.29 1017.08 1017.77 1018.59 1019.44 1019.96 1020.63 1021.14 1021.80 1022.28 1022.89 1023.68
1000.59 1000.88 1001.35 1002.36 1003.37 1004.52 1005.75 1006.79 1007.47 1007.87 1008.45 1009.45 1010.35 1011.28 1011.84 1012.75 1013.12 1013.93 1014.80 1015.73 1016.49 1017.18 1018.03 1018.84 1019.57 1020.14 1020.68 1021.19 1022.16 1022.56 1023.08 1023.60
1001.02 1001.32 1001.37 1001.75 1002.64 1003.68 1004.78 1005.83 1006.56 1007.13 1008.07 1008.82 1010.15 1011.22 1011.73 1012.45 1013.31 1014.34 1015.26 1016.08 1016.70 1017.44 1018.29 1018.98 1019.67 1020.39 1020.95 1021.55 1022.26 1022.83 1023.31 1023.62
1001.26 1001.73 1002.05 1002.23 1002.73 1003.45 1004.67 1005.36 1006.25 1007.50 1008.23 1009.35 1011.20 1012.06 1012.73 1013.61 1014.52 1015.30 1015.96 1016.62 1017.37 1017.97 1018.57 1019.28 1019.95 1020.49 1021.08 1021.80 1022.21 1022.68 1023.00 1023.23
1001.33 1002.05 1002.59 1003.10 1003.67 1004.37 1005.30 1006.50 1007.63 1008.64 1009.62 1010.64 1012.05 1012.88 1013.59 1014.53 1015.38 1016.10 1016.69 1017.18 1017.82 1018.50 1019.10 1019.63 1020.33 1020.66 1021.34 1021.65 1022.28 1022.73 1022.99 1023.06
1001.01 1001.88 1002.84 1003.64 1004.57 1005.85 1006.93 1008.09 1008.94 1009.72 1010.76 1011.60 1012.68 1013.54 1014.53 1015.24 1015.87 1016.42 1017.02 1017.69 1018.27 1018.80 1019.27 1019.92 1020.50 1021.00 1021.58 1021.96 1022.38 1022.74 1022.84 1022.84
1000.83 1001.75 1002.83 1003.95 1005.45 1006.88 1008.28 1009.21 1010.03 1010.69 1011.47 1012.36 1012.85 1013.64 1014.51 1015.28 1016.10 1016.77 1017.43 1018.00 1018.48 1019.00 1019.60 1020.02 1020.58 1021.15 1021.68 1022.02 1022.37 1022.61 1022.63 1022.52
1001.25 1001.97 1002.91 1004.26 1006.17 1007.61 1008.89 1009.93 1010.66 1011.14 1011.61 1012.45 1013.28 1013.86 1014.72 1015.40 1015.96 1016.67 1017.36 1018.01 1018.62 1019.28 1019.81 1020.30 1020.77 1021.19 1021.63 1021.82 1022.17 1022.43 1022.29 1022.18
1001.98 1002.91 1003.85 1005.02 1006.48 1008.02 1009.25 1010.48 1011.07 1011.60 1012.04 1012.84 1013.52 1014.20 1014.83 1015.44 1016.22 1016.95 1017.57 1018.14 1018.81 1019.40 1019.78 1020.14 1020.37 1020.80 1021.46 1021.99 1022.26 1022.47 1022.29 1022.22
Thickness
5637 5626 5621 5614 5606 5597 5591 5586 5585 5582 5580 5578 5578 5579 5585 5588 5590 5592 5592 5591 5590 5590 5592 5589 5588 5588 5586 5586 5585 5587 5584 5582
5645 5638 5630 5623 5611 5603 5600 5596 5594 5594 5590 5587 5585 5587 5592 5593 5595 5593 5594 5592 5592 5592 5590 5591 5590 5589 5586 5583 5581 5580 5577 5578
5645 5642 5637 5627 5615 5610 5606 5604 5602 5598 5597 5597 5596 5598 5598 5597 5597 5599 5599 5597 5593 5595 5594 5593 5590 5586 5584 5582 5575 5575 5574 5571
5646 5643 5639 5632 5624 5619 5616 5611 5606 5605 5611 5609 5606 5604 5604 5602 5603 5603 5603 5599 5594 5596 5597 5594 5589 5584 5580 5578 5573 5570 5568 5567
5655 5648 5642 5640 5635 5630 5625 5620 5618 5619 5620 5617 5616 5614 5610 5611 5609 5609 5607 5605 5599 5596 5592 5591 5589 5587 5579 5576 5572 5565 5563 5563
5663 5657 5652 5648 5643 5637 5632 5629 5627 5626 5624 5624 5621 5617 5616 5615 5614 5613 5609 5603 5599 5595 5592 5591 5588 5584 5578 5574 5570 5561 5555 5558
5674 5665 5659 5655 5651 5645 5640 5637 5635 5635 5632 5629 5624 5620 5617 5615 5615 5611 5607 5603 5600 5596 5591 5587 5585 5582 5576 5568 5558 5553 5543 5536
5684 5675 5669 5665 5659 5653 5647 5643 5642 5642 5639 5634 5628 5625 5623 5616 5612 5610 5604 5601 5600 5598 5590 5586 5581 5575 5568 5561 5553 5542 5534 5529
5691 5686 5679 5671 5665 5660 5655 5650 5646 5645 5641 5635 5632 5630 5632 5621 5612 5610 5609 5606 5602 5599 5592 5584 5576 5569 5563 5555 5547 5537 5532 5520
5698 5693 5688 5682 5674 5667 5660 5655 5650 5649 5646 5639 5637 5634 5629 5627 5620 5615 5610 5605 5601 5594 5586 5578 5568 5560 5553 5546 5539 5530 5525 5514
5705 5702 5694 5689 5684 5676 5666 5660 5656 5654 5651 5645 5640 5630 5621 5626 5623 5617 5608 5600 5591 5583 5576 5567 5558 5551 5542 5536 5527 5521 5513 5502
5702 5703 5701 5694 5687 5680 5673 5665 5660 5659 5655 5644 5638 5630 5626 5618 5615 5609 5600 5591 5583 5576 5566 5557 5549 5541 5534 5527 5515 5508 5500 5491
5695 5695 5698 5694 5689 5682 5675 5670 5665 5662 5651 5645 5634 5626 5621 5616 5609 5600 5590 5581 5573 5565 5556 5548 5540 5531 5523 5515 5507 5497 5488 5478
5686 5685 5685 5687 5684 5681 5673 5670 5664 5650 5645 5635 5620 5612 5608 5599 5590 5582 5574 5567 5560 5553 5545 5536 5527 5520 5513 5503 5495 5486 5476 5468
5679 5676 5675 5675 5674 5670 5662 5651 5643 5638 5628 5618 5604 5597 5591 5582 5573 5566 5560 5555 5548 5539 5532 5525 5516 5510 5500 5492 5482 5473 5465 5457
5676 5671 5666 5663 5659 5650 5643 5632 5626 5621 5611 5603 5592 5585 5575 5569 5563 5557 5551 5543 5536 5529 5522 5513 5505 5497 5488 5479 5470 5461 5453 5445
5674 5666 5660 5655 5643 5635 5623 5616 5607 5603 5597 5588 5584 5577 5570 5563 5553 5546 5538 5532 5525 5518 5509 5503 5494 5485 5475 5465 5457 5449 5440 5434
5667 5663 5650 5644 5629 5621 5611 5602 5596 5592 5589 5582 5575 5570 5560 5553 5547 5539 5530 5522 5514 5505 5496 5488 5481 5474 5464 5454 5445 5437 5430 5422
5656 5649 5639 5630 5620 5608 5600 5590 5586 5581 5578 5571 5563 5556 5549 5542 5533 5525 5517 5510 5501 5493 5486 5479 5474 5466 5452 5438 5429 5422 5416 5408